This is the latest recevied weather packets stored in our database for station/object KE8ZLU. If no packets are shown the sender has not sent any weather packets the latest 10 day(s).
| Time | Temp. | Humidity | Pressure | Rain* | Wind** | Luminosity | Snow |
|---|---|---|---|---|---|---|---|
| 1777722862 | 1.11° C | 83% | 1019.8 hPa | 0 mm | - | 48 W/m² | - |
| 1777722558 | 1.11° C | 83% | 1019.9 hPa | 0 mm | - | 79 W/m² | - |
| 1777722255 | 0.56° C | 84% | 1019.5 hPa | 0 mm | - | 71 W/m² | - |
| 1777721952 | 0.56° C | 84% | 1019.6 hPa | 0 mm | - | 63 W/m² | - |
| 1777721650 | 0.56° C | 84% | 1019.6 hPa | 0 mm | - | 54 W/m² | - |
| 1777721349 | 0.56° C | 85% | 1019.6 hPa | 0 mm | - | 47 W/m² | - |
| 1777721045 | 0.56° C | 85% | 1019.5 hPa | 0 mm | - | 41 W/m² | - |
| 1777720743 | 0° C | 86% | 1019.6 hPa | 0 mm | - | 35 W/m² | - |
| 1777720440 | 0° C | 87% | 1019.4 hPa | 0 mm | - | 30 W/m² | - |
| 1777720137 | 0° C | 87% | 1019.5 hPa | 0 mm | - | 25 W/m² | - |
| 1777719835 | -0.56° C | 87% | 1019.4 hPa | 0 mm | - | 21 W/m² | - |
| 1777719532 | -0.56° C | 88% | 1019.3 hPa | 0 mm | - | 17 W/m² | - |
| 1777719229 | -0.56° C | 88% | 1019.3 hPa | 0 mm | - | 14 W/m² | - |
| 1777718927 | -0.56° C | 89% | 1019.5 hPa | 0 mm | - | 11 W/m² | - |
| 1777718624 | -1.11° C | 88% | 1019.4 hPa | 0 mm | - | 8 W/m² | - |
| 1777718321 | -0.56° C | 88% | 1019.4 hPa | 0 mm | - | 5 W/m² | - |
| 1777718019 | -0.56° C | 88% | 1019.5 hPa | 0 mm | - | 3 W/m² | - |
| 1777717716 | -0.56° C | 88% | 1019.3 hPa | 0 mm | - | 2 W/m² | - |
| 1777717412 | -0.56° C | 88% | 1019.4 hPa | 0 mm | - | 1 W/m² | - |
| 1777717110 | -0.56° C | 88% | 1019.3 hPa | 0 mm | - | 1 W/m² | - |
| 1777716808 | -0.56° C | 87% | 1019.2 hPa | 0 mm | - | 0 W/m² | - |
| 1777716506 | -0.56° C | 87% | 1019.1 hPa | 0 mm | - | 0 W/m² | - |
| 1777716205 | -0.56° C | 87% | 1019.3 hPa | 0 mm | - | 0 W/m² | - |
| 1777715902 | -0.56° C | 86% | 1019.2 hPa | 0 mm | - | 0 W/m² | - |
| 1777715600 | -0.56° C | 86% | 1019.1 hPa | 0 mm | - | 0 W/m² | - |
* Rain latest hour (hover to see other rain measurements)
** Current wind speed in m/s (hover to see current wind gust speed)